Location: Dallas
(32.7833°N, 96.8000°W)
Time: 12:40:37
(UTC-05:00)

Envisat - Pass Details

Date: 30 June 2022
Orbit: 763 x 765 km, 98.2° (Epoch: 09 August)

Event Time Altitude Azimuth Distance (km) Brightness Sun altitude
Rises 04:47:44 0° 33° (NNE) 3,232 7.8 -17.0°
Reaches altitude 10° 04:50:50 10° 53° (NE) 2,301 6.8 -16.5°
Maximum altitude 04:54:07 17° 94° (E) 1,845 5.5 -16.0°
Drops below altitude 10° 04:57:24 10° 135° (SE) 2,292 5.5 -15.5°
Sets 05:00:28 0° 154° (SSE) 3,212 6.1 -15.0°
